When you browse on this site, cookies collect data to enhance your experience and personalize the content and advertising you see.
Visit our Privacy Policy to learn more. By continuing to use the site, you agree to this use of cookies and data.
  • In Switzerland
  • List of Countries
  • For 7 days
  • Water Temperature
  • Weather Map
  • Weather Widgets
  • user-avatar
    Login

    Hourly Weather Barra

    Today, 19 October, Saturday

    Time Temperature Precipitation Wind Pressure Humidity
    00:00 +21°C° 0 mm 2 mps 750 mmHg 94%
    01:00 +21°C° 0 mm 2 mps 750 mmHg 95%
    02:00 +21°C° 0 mm 2 mps 750 mmHg 95%
    03:00 +21°C° 0 mm 2 mps 750 mmHg 95%
    04:00 +21°C° 0 mm 1 mps 750 mmHg 95%
    05:00 +22°C° 0 mm 1 mps 750 mmHg 90%
    06:00 +23°C° 0 mm 1 mps 750 mmHg 85%
    07:00 +22°C° 0 mm 0 mps 751 mmHg 79%
    08:00 +26°C° 0 mm 1 mps 751 mmHg 67%
    09:00 +29°C° 0 mm 1 mps 751 mmHg 55%
    10:00 +32°C° 0 mm 2 mps 751 mmHg 43%
    11:00 +32°C° 0 mm 2 mps 750 mmHg 45%
    12:00 +33°C° 0 mm 3 mps 750 mmHg 46%
    13:00 +33°C° 0 mm 3 mps 749 mmHg 47%
    14:00 +31°C° 0 mm 3 mps 748 mmHg 51%
    15:00 +30°C° 0 mm 3 mps 748 mmHg 55%
    16:00 +29°C° 0 mm 3 mps 747 mmHg 59%
    17:00 +27°C° 0 mm 3 mps 748 mmHg 67%
    18:00 +26°C° 0 mm 2 mps 748 mmHg 76%
    19:00 +24°C° 0 mm 2 mps 749 mmHg 85%
    20:00 +23°C° 0 mm 2 mps 749 mmHg 88%
    21:00 +23°C° 0 mm 2 mps 750 mmHg 90%
    22:00 +21°C° 0 mm 2 mps 751 mmHg 92%
    23:00 +21°C° 0 mm 2 mps 750 mmHg 93%

    Tomorrow, 20 October, Sunday

    Time Temperature Precipitation Wind Pressure Humidity
    00:00 +21°C° 0 mm 1 mps 750 mmHg 94%
    01:00 +21°C° 0 mm 1 mps 750 mmHg 95%
    02:00 +21°C° 0 mm 1 mps 750 mmHg 95%
    03:00 +20°C° 0 mm 1 mps 750 mmHg 95%
    04:00 +20°C° 0 mm 1 mps 749 mmHg 95%
    05:00 +21°C° 0 mm 1 mps 750 mmHg 87%
    06:00 +22°C° 0 mm 1 mps 750 mmHg 79%
    07:00 +23°C° 0 mm 1 mps 750 mmHg 72%
    08:00 +26°C° 0 mm 1 mps 750 mmHg 56%
    09:00 +30°C° 0 mm 1 mps 750 mmHg 39%
    10:00 +33°C° 0 mm 1 mps 750 mmHg 23%
    11:00 +34°C° 0 mm 2 mps 750 mmHg 26%
    12:00 +34°C° 0 mm 3 mps 749 mmHg 29%
    13:00 +34°C° 0 mm 4 mps 748 mmHg 33%
    14:00 +33°C° 0 mm 4 mps 748 mmHg 40%
    15:00 +32°C° 0 mm 4 mps 748 mmHg 47%
    16:00 +29°C° 0 mm 3 mps 747 mmHg 54%
    17:00 +28°C° 0 mm 3 mps 748 mmHg 64%
    18:00 +26°C° 0 mm 2 mps 748 mmHg 74%
    19:00 +24°C° 0 mm 2 mps 749 mmHg 84%
    20:00 +24°C° 0 mm 2 mps 749 mmHg 85%
    21:00 +23°C° 0 mm 2 mps 750 mmHg 86%
    22:00 +23°C° 0 mm 2 mps 751 mmHg 87%
    23:00 +23°C° 0 mm 1 mps 750 mmHg 87%

    Day after tomorrow, 21 October, Monday

    Time Temperature Precipitation Wind Pressure Humidity
    00:00 +23°C° 0 mm 1 mps 750 mmHg 86%
    01:00 +23°C° 0 mm 1 mps 750 mmHg 86%
    02:00 +23°C° 0 mm 1 mps 750 mmHg 87%
    03:00 +22°C° 0 mm 1 mps 750 mmHg 88%
    04:00 +22°C° 0 mm 1 mps 749 mmHg 90%
    05:00 +23°C° 0 mm 1 mps 750 mmHg 86%
    06:00 +24°C° 0 mm 2 mps 750 mmHg 83%
    07:00 +24°C° 0 mm 2 mps 751 mmHg 79%
    08:00 +26°C° 0 mm 2 mps 751 mmHg 72%
    09:00 +27°C° 0 mm 3 mps 751 mmHg 65%
    10:00 +28°C° 0 mm 3 mps 751 mmHg 58%
    11:00 +29°C° 0.1 mm 4 mps 751 mmHg 57%
    12:00 +29°C° 0.1 mm 4 mps 750 mmHg 55%
    13:00 +29°C° 0.1 mm 5 mps 750 mmHg 54%
    14:00 +29°C° 0.1 mm 5 mps 750 mmHg 56%
    15:00 +28°C° 0.1 mm 4 mps 749 mmHg 58%
    16:00 +28°C° 0.1 mm 4 mps 749 mmHg 60%
    17:00 +27°C° 0.4 mm 4 mps 750 mmHg 67%
    18:00 +25°C° 0.4 mm 4 mps 750 mmHg 74%
    19:00 +23°C° 0.4 mm 4 mps 751 mmHg 81%
    20:00 +22°C° 0.1 mm 4 mps 751 mmHg 83%
    21:00 +22°C° 0.1 mm 4 mps 751 mmHg 86%
    22:00 +21°C° 0.1 mm 4 mps 752 mmHg 89%
    23:00 +21°C° 0.3 mm 4 mps 751 mmHg 89%

    22 October, Tuesday

    Time Temperature Precipitation Wind Pressure Humidity
    00:00 +21°C° 0.3 mm 4 mps 751 mmHg 89%
    01:00 +21°C° 0.3 mm 4 mps 751 mmHg 90%
    02:00 +21°C° 0.1 mm 4 mps 751 mmHg 89%
    03:00 +21°C° 0.1 mm 4 mps 751 mmHg 88%
    04:00 +21°C° 0.1 mm 4 mps 751 mmHg 88%
    05:00 +21°C° 0.1 mm 5 mps 751 mmHg 85%
    06:00 +22°C° 0.1 mm 5 mps 751 mmHg 82%
    07:00 +23°C° 0.1 mm 5 mps 752 mmHg 80%
    08:00 +25°C° 0 mm 5 mps 752 mmHg 71%
    09:00 +26°C° 0 mm 5 mps 752 mmHg 62%
    10:00 +28°C° 0 mm 6 mps 752 mmHg 53%
    11:00 +28°C° 0.1 mm 6 mps 752 mmHg 52%
    12:00 +28°C° 0.1 mm 6 mps 751 mmHg 51%
    13:00 +29°C° 0.1 mm 6 mps 751 mmHg 50%
    14:00 +28°C° 0 mm 6 mps 750 mmHg 51%
    15:00 +28°C° 0 mm 6 mps 750 mmHg 52%
    16:00 +27°C° 0 mm 5 mps 750 mmHg 53%
    17:00 +26°C° 0 mm 5 mps 750 mmHg 61%
    18:00 +23°C° 0 mm 4 mps 751 mmHg 69%
    19:00 +21°C° 0 mm 4 mps 751 mmHg 77%
    20:00 +21°C° 0.1 mm 4 mps 752 mmHg 80%
    21:00 +21°C° 0.1 mm 4 mps 752 mmHg 83%
    22:00 +20°C° 0.1 mm 4 mps 752 mmHg 86%
    23:00 +20°C° 0.1 mm 4 mps 752 mmHg 86%

    23 October, Wednesday

    Time Temperature Precipitation Wind Pressure Humidity
    00:00 +20°C° 0.1 mm 4 mps 752 mmHg 86%
    01:00 +20°C° 0.1 mm 4 mps 751 mmHg 86%
    02:00 +20°C° 0.4 mm 4 mps 751 mmHg 87%
    03:00 +20°C° 0.4 mm 4 mps 751 mmHg 88%
    04:00 +20°C° 0.4 mm 4 mps 750 mmHg 90%
    05:00 +20°C° 0.7 mm 5 mps 751 mmHg 89%
    06:00 +21°C° 0.7 mm 5 mps 751 mmHg 88%
    07:00 +21°C° 0.7 mm 6 mps 752 mmHg 87%
    08:00 +22°C° 0.5 mm 6 mps 751 mmHg 84%
    09:00 +22°C° 0.5 mm 6 mps 751 mmHg 81%
    10:00 +23°C° 0.5 mm 6 mps 751 mmHg 78%
    11:00 +24°C° 0.3 mm 6 mps 751 mmHg 74%
    12:00 +26°C° 0.3 mm 6 mps 750 mmHg 69%
    13:00 +27°C° 0.3 mm 6 mps 750 mmHg 65%
    14:00 +26°C° 0.4 mm 6 mps 749 mmHg 68%
    15:00 +26°C° 0.4 mm 6 mps 749 mmHg 70%
    16:00 +24°C° 0.4 mm 6 mps 749 mmHg 73%
    17:00 +23°C° 0.7 mm 6 mps 749 mmHg 78%
    18:00 +22°C° 0.7 mm 6 mps 750 mmHg 83%
    19:00 +21°C° 0.7 mm 5 mps 750 mmHg 88%
    20:00 +21°C° 0.9 mm 5 mps 751 mmHg 88%
    21:00 +21°C° 0.9 mm 5 mps 751 mmHg 88%
    22:00 +21°C° 0.9 mm 5 mps 751 mmHg 88%
    23:00 +21°C° 0.4 mm 5 mps 751 mmHg 88%

    24 October, Thursday

    Time Temperature Precipitation Wind Pressure Humidity
    00:00 +21°C° 0.4 mm 5 mps 751 mmHg 87%
    01:00 +21°C° 0.4 mm 5 mps 750 mmHg 87%
    02:00 +20°C° 0.1 mm 5 mps 750 mmHg 86%
    03:00 +20°C° 0.1 mm 4 mps 750 mmHg 86%
    04:00 +20°C° 0.1 mm 4 mps 750 mmHg 86%
    05:00 +20°C° 0 mm 4 mps 750 mmHg 84%
    06:00 +20°C° 0 mm 4 mps 751 mmHg 82%
    07:00 +21°C° 0 mm 4 mps 751 mmHg 81%
    08:00 +22°C° 0 mm 4 mps 751 mmHg 72%
    09:00 +25°C° 0 mm 4 mps 751 mmHg 64%
    10:00 +26°C° 0 mm 4 mps 751 mmHg 56%
    11:00 +27°C° 0.1 mm 4 mps 750 mmHg 55%
    12:00 +27°C° 0.1 mm 4 mps 750 mmHg 54%
    13:00 +28°C° 0.1 mm 4 mps 749 mmHg 53%
    14:00 +27°C° 0.1 mm 4 mps 749 mmHg 57%
    15:00 +27°C° 0.1 mm 4 mps 748 mmHg 61%
    16:00 +26°C° 0.1 mm 4 mps 748 mmHg 64%
    17:00 +25°C° 0 mm 4 mps 748 mmHg 70%
    18:00 +22°C° 0 mm 3 mps 749 mmHg 76%
    19:00 +21°C° 0 mm 3 mps 749 mmHg 81%
    20:00 +21°C° 0 mm 3 mps 750 mmHg 82%
    21:00 +20°C° 0 mm 3 mps 750 mmHg 82%
    22:00 +20°C° 0 mm 3 mps 750 mmHg 83%
    23:00 +20°C° 0 mm 3 mps 750 mmHg 84%
    Show more